FW2514 Weather Reports


time (UTC)temp
C
wind
direction
speed
KPH
gust
KPH
rain 1hr
cm
rain 24hr
cm
rain mn
cm
humidity
%
barometer
mb
20260906051603 21 199 0.0 0.0 0.00 0.00 0.00 62 1012.2
20260906050103 21 199 0.0 0.0 0.00 0.00 0.00 61 1012.4
20260906044557 22 199 0.0 0.0 0.00 0.00 0.00 60 1012.4
20260906043050 22 199 0.0 0.0 0.00 0.00 0.00 58 1012.7
20260906041549 22 199 0.0 0.0 0.00 0.00 0.00 58 1012.7
20260906040059 22 199 0.0 0.0 0.00 0.00 0.00 58 1012.8
20260906034547 22 199 0.0 0.0 0.00 0.00 0.00 57 1012.7
20260906033050 22 199 0.0 0.0 0.00 0.00 0.00 57 1012.7
20260906031547 22 200 0.0 3.2 0.00 0.00 0.00 57 1013.0
20260906030047 22 200 0.0 1.6 0.00 0.00 0.00 57 1012.9
20260906024551 23 200 0.0 1.6 0.00 0.00 0.00 57 1012.5
20260906023046 23 200 0.0 3.2 0.00 0.00 0.00 57 1012.3
20260906021546 23 198 0.0 1.6 0.00 0.00 0.00 57 1012.1
20260906020045 23 198 0.0 0.0 0.00 0.00 0.00 57 1012.0
20260906014615 23 198 0.0 0.0 0.00 0.00 0.00 57 1012.2
20260906013049 23 198 0.0 0.0 0.00 0.00 0.00 57 1012.2
20260906011544 23 198 0.0 0.0 0.00 0.00 0.00 57 1012.1
20260906010049 23 198 0.0 0.0 0.00 0.00 0.00 58 1011.6
20260906004544 24 198 0.0 0.0 0.00 0.00 0.00 58 1011.7
20260906003044 24 198 0.0 0.0 0.00 0.00 0.00 59 1011.6
20260906001543 25 200 0.0 3.2 0.00 0.00 0.00 60 1011.5
20260906000044 26 200 0.0 0.0 0.00 0.00 0.00 59 1011.2
20260905234542 26 200 0.0 0.0 0.00 0.00 0.00 57 1011.0
20260905233046 27 200 0.0 3.2 0.00 0.00 0.00 55 1010.7
20260905231543 27 200 0.0 3.2 0.00 0.00 0.00 54 1010.8
20260905230042 28 200 1.6 4.8 0.00 0.00 0.00 52 1010.9
20260905224541 28 200 0.0 3.2 0.00 0.00 0.00 52 1010.9
20260905223042 28 200 0.0 4.8 0.00 0.00 0.00 53 1010.7
20260905221603 28 200 0.0 6.4 0.00 0.00 0.00 53 1010.8
20260905220040 27 190 0.0 4.8 0.00 0.00 0.00 53 1010.8
20260905214538 27 250 0.0 6.4 0.00 0.00 0.00 54 1011.0
20260905213055 26 217 4.8 9.7 0.00 0.00 0.00 53 1011.2
20260905211540 25 177 1.6 11.3 0.00 0.00 0.00 54 1011.3
20260905210048 25 202 1.6 6.4 0.00 0.00 0.00 53 1011.5
20260905204543 23 213 0.0 1.6 0.00 0.00 0.00 56 1011.7
20260905203040 22 213 0.0 4.8 0.00 0.00 0.00 58 1011.8
20260905201535 22 228 0.0 4.8 0.00 0.00 0.00 56 1011.9
20260905200041 22 244 0.0 4.8 0.00 0.00 0.00 57 1012.1
20260905194534 22 243 0.0 3.2 0.00 0.00 0.00 57 1012.0
20260905193034 22 244 3.2 11.3 0.00 0.00 0.00 57 1012.4
20260905191532 22 182 0.0 11.3 0.00 0.00 0.00 57 1011.8
20260905190030 22 161 1.6 4.8 0.00 0.00 0.00 60 1011.7
20260905184540 24 182 4.8 8.0 0.00 0.00 0.00 59 1012.2
20260905183030 28 255 8.0 32.2 0.00 0.00 0.00 44 1012.5
20260905181529 33 253 14.5 43.5 0.00 0.00 0.00 33 1011.5
20260905180028 36 312 3.2 20.9 0.00 0.00 0.00 31 1011.3
20260905174525 36 256 1.6 12.9 0.00 0.00 0.00 30 1012.0
20260905173024 37 236 0.0 1.6 0.00 0.00 0.00 36 1012.3
20260905171524 37 235 3.2 9.7 0.00 0.00 0.00 32 1012.6
20260905170020 36 190 0.0 6.4 0.00 0.00 0.00 35 1012.5
20260905164517 36 185 0.0 9.7 0.00 0.00 0.00 37 1012.8
20260905163016 36 144 1.6 4.8 0.00 0.00 0.00 35 1013.2
20260905161514 35 147 0.0 4.8 0.00 0.00 0.00 41 1013.3
20260905160010 33 147 0.0 3.2 0.00 0.00 0.00 43 1013.3
20260905154507 32 147 0.0 4.8 0.00 0.00 0.00 43 1013.4
20260905153008 33 147 1.6 6.4 0.00 0.00 0.00 44 1013.6
20260905151504 32 147 0.0 6.4 0.00 0.00 0.00 49 1013.3
20260905150059 32 146 0.0 3.2 0.00 0.00 0.00 50 1013.5
20260905144556 31 140 0.0 1.6 0.00 0.00 0.00 51 1013.6
20260905141549 30 117 0.0 0.0 0.00 0.00 0.00 53 1013.6
20260905140046 29 117 0.0 0.0 0.00 0.00 0.00 55 1013.6
20260905134546 28 117 0.0 0.0 0.00 0.00 0.00 55 1013.8
20260905131536 26 115 0.0 0.0 0.00 0.00 0.00 54 1013.8
20260905130034 26 115 0.0 0.0 0.00 0.00 0.00 54 1013.8
20260905124534 25 115 0.0 0.0 0.00 0.00 0.00 54 1013.8
20260905121533 23 115 0.0 0.0 0.00 0.00 0.00 62 1013.8
20260905120033 23 115 0.0 0.0 0.00 0.00 0.00 63 1013.8
20260905114533 22 115 0.0 0.0 0.00 0.00 0.00 61 1013.5
20260905111530 22 115 0.0 0.0 0.00 0.00 0.00 60 1013.1
20260905110030 22 115 0.0 3.2 0.00 0.00 0.00 60 1012.8
20260905104533 22 115 1.6 3.2 0.00 0.00 0.00 59 1012.4
20260905101533 22 115 0.0 0.0 0.00 0.00 0.00 58 1012.3
20260905100035 23 115 0.0 1.6 0.00 0.00 0.00 58 1012.4
20260905094527 23 115 0.0 1.6 0.00 0.00 0.00 58 1012.5
20260905091527 23 115 0.0 0.0 0.00 0.00 0.00 58 1012.2
20260905090025 23 115 0.0 0.0 0.00 0.00 0.00 58 1012.4
20260905084523 23 115 0.0 0.0 0.00 0.00 0.00 57 1012.6
20260905081523 23 115 0.0 0.0 0.00 0.00 0.00 57 1012.8
20260905080031 23 115 0.0 1.6 0.00 0.00 0.00 57 1013.0
20260905074516 24 115 0.0 0.0 0.00 0.00 0.00 57 1012.9
20260905071514 25 115 0.0 0.0 0.00 0.00 0.00 56 1013.1
20260905070027 25 115 0.0 1.6 0.00 0.00 0.00 56 1013.2
20260905064510 25 115 1.6 6.4 0.00 0.00 0.00 56 1013.4
20260905061506 25 117 0.0 3.2 0.00 0.00 0.00 57 1013.8
20260905060005 25 117 0.0 3.2 0.00 0.00 0.00 57 1014.1
20260905054508 25 117 1.6 4.8 0.00 0.00 0.00 59 1014.3